Temp
15 16 16 16 16 15 14 12 11 11 12 10 11 10 10 11 11 11 11 11 10 10 9 9 8 7 7 6 6 6 6 6
14 15 15 14 13 12 12 13 11 12 10 11 10 10 11 11 11 10 10 10 9 9 8 8 7 6 6 6 5 5 5 4
13 13 12 12 12 12 12 12 11 11 11 10 10 11 11 10 10 9 9 8 8 7 7 6 6 5 5 4 4 4 4 4
12 12 13 13 13 13 13 12 12 12 11 11 11 11 10 10 9 9 8 7 7 6 6 5 5 4 4 3 3 3 3 2
12 13 13 13 13 13 13 12 12 11 11 11 10 10 10 9 8 8 7 6 6 5 5 4 4 3 3 3 2 2 1 -0
13 13 12 12 12 12 12 12 11 11 11 10 10 9 8 7 7 6 6 5 5 4 4 4 3 3 2 2 2 1 -0 -1
12 12 13 12 12 11 11 11 11 10 10 9 9 8 7 6 6 5 5 5 4 4 3 3 2 2 1 1 0 -0 -1 -2
12 12 11 11 11 10 10 10 9 9 9 8 8 7 6 6 5 5 4 4 4 3 2 2 1 1 0 0 -0 -1 -2 -2
11 11 11 11 10 10 10 9 9 9 8 7 6 6 5 5 4 4 4 3 3 2 2 1 1 0 0 -0 -1 -1 -2 -2
11 10 10 10 9 9 9 9 8 7 7 6 5 5 4 4 3 3 3 2 2 2 1 1 0 -0 -0 -1 -1 -2 -2 -3
11 10 9 9 9 9 8 8 7 6 6 5 5 4 3 3 3 3 2 2 1 1 1 0 -0 -0 -1 -2 -2 -3 -3 -4
9 9 8 8 8 7 7 7 6 6 5 5 4 4 3 3 3 2 2 1 1 0 0 -0 -1 -1 -2 -2 -3 -4 -4 -4
8 7 7 7 7 7 7 6 5 5 5 4 4 3 3 3 2 1 1 0 -0 -1 -1 -1 -2 -2 -3 -3 -4 -4 -5 -5
7 7 7 7 7 6 6 5 5 4 4 4 4 3 2 1 0 -0 -0 -1 -1 -1 -2 -2 -2 -3 -4 -4 -5 -5 -5 -5
7 7 7 6 6 5 5 5 4 4 4 3 2 1 0 -0 -1 -1 -1 -1 -1 -2 -2 -3 -3 -4 -4 -5 -5 -5 -5 -6
7 6 6 5 5 5 4 4 4 3 2 1 1 0 -0 -1 -1 -2 -2 -2 -2 -3 -3 -3 -3 -4 -5 -5 -5 -5 -6 -6
6 5 5 5 4 4 3 3 2 2 1 1 -0 -1 -1 -2 -2 -2 -3 -3 -3 -4 -4 -4 -5 -5 -5 -5 -6 -6 -6 -7
5 5 5 4 4 3 3 2 1 1 0 0 -0 -1 -2 -2 -3 -3 -3 -3 -4 -5 -5 -5 -5 -5 -6 -6 -6 -7 -7 -8
5 4 4 4 3 3 2 1 1 0 0 0 -0 -1 -2 -3 -4 -4 -4 -4 -4 -4 -5 -5 -6 -6 -6 -7 -7 -7 -8 -8
Height
1553 1555 1556 1558 1560 1561 1564 1566 1566 1570 1569 1570 1575 1577 1577 1577 1577 1577 1576 1575 1575 1573 1571 1569 1567 1565 1562 1560 1558 1555 1551 1547
1554 1553 1554 1555 1556 1559 1562 1566 1565 1567 1571 1576 1573 1578 1577 1576 1577 1576 1576 1575 1573 1571 1568 1566 1564 1561 1558 1556 1553 1549 1546 1542
1553 1553 1555 1556 1557 1559 1562 1562 1565 1566 1572 1573 1574 1576 1576 1576 1575 1573 1572 1571 1568 1567 1566 1563 1561 1558 1556 1552 1549 1545 1541 1537
1554 1555 1556 1558 1559 1561 1563 1566 1567 1569 1572 1574 1574 1574 1574 1573 1573 1572 1570 1569 1565 1564 1562 1559 1556 1554 1551 1548 1544 1540 1537 1535
1555 1556 1557 1560 1562 1563 1564 1565 1567 1569 1571 1573 1573 1571 1571 1571 1571 1569 1566 1565 1561 1560 1557 1554 1552 1549 1547 1544 1540 1537 1534 1531
1555 1556 1559 1560 1562 1563 1564 1565 1569 1570 1569 1570 1570 1569 1568 1567 1567 1564 1563 1561 1558 1556 1553 1551 1548 1545 1542 1539 1536 1533 1530 1528
1555 1557 1559 1560 1561 1563 1563 1564 1565 1568 1568 1567 1566 1566 1565 1563 1563 1562 1560 1558 1555 1552 1550 1547 1544 1540 1537 1534 1532 1529 1527 1525
1553 1555 1557 1560 1562 1563 1563 1564 1564 1565 1564 1564 1563 1563 1562 1560 1560 1559 1557 1554 1551 1548 1545 1542 1539 1536 1533 1530 1528 1525 1523 1521
1552 1555 1557 1559 1561 1561 1562 1562 1562 1562 1562 1561 1560 1559 1558 1558 1557 1555 1553 1550 1547 1544 1541 1537 1535 1532 1529 1526 1523 1521 1518 1517
1552 1554 1555 1557 1558 1559 1560 1560 1561 1560 1560 1559 1558 1557 1556 1555 1553 1551 1548 1545 1542 1539 1535 1533 1530 1527 1524 1521 1519 1516 1514 1512
1549 1550 1552 1554 1556 1557 1558 1558 1559 1559 1557 1556 1555 1554 1553 1551 1548 1546 1543 1540 1536 1533 1530 1527 1524 1522 1519 1517 1514 1512 1510 1509
1546 1548 1551 1553 1554 1555 1555 1556 1556 1556 1554 1553 1553 1551 1549 1546 1544 1541 1537 1534 1531 1527 1525 1521 1518 1515 1513 1511 1508 1506 1506 1505
1545 1548 1550 1551 1551 1553 1553 1554 1553 1552 1552 1551 1549 1547 1545 1542 1539 1536 1533 1529 1526 1522 1518 1514 1512 1509 1507 1504 1501 1502 1501 1500
1545 1547 1548 1548 1549 1551 1551 1550 1551 1550 1549 1548 1546 1543 1540 1538 1535 1531 1527 1522 1518 1514 1510 1508 1505 1503 1501 1498 1497 1497 1496 1495
1543 1544 1544 1546 1548 1549 1548 1549 1548 1547 1546 1544 1541 1538 1536 1533 1529 1525 1521 1516 1512 1508 1505 1502 1500 1497 1494 1492 1493 1493 1491 1490
1540 1541 1543 1545 1545 1546 1547 1546 1545 1544 1541 1539 1536 1534 1531 1528 1524 1519 1515 1511 1506 1502 1499 1496 1494 1493 1491 1491 1490 1489 1487 1484
1537 1539 1541 1541 1542 1543 1544 1543 1541 1539 1536 1534 1531 1529 1526 1522 1518 1514 1510 1506 1501 1498 1496 1494 1491 1490 1489 1488 1487 1485 1482 1478
1534 1535 1537 1538 1539 1539 1540 1539 1536 1534 1532 1529 1526 1523 1520 1516 1513 1509 1505 1502 1498 1495 1492 1491 1489 1488 1486 1485 1483 1480 1477 1473
1530 1531 1532 1534 1535 1536 1535 1533 1531 1529 1526 1523 1520 1516 1513 1510 1507 1503 1500 1496 1493 1491 1490 1488 1486 1484 1483 1481 1479 1476 1472 1469
Wind_Speed
15 15 15 16 18 20 21 19 17 16 13 22 20 7 2 3 6 6 8 10 13 15 17 18 19 20 21 22 25 27 28 29
5 7 7 7 8 9 10 9 15 7 12 7 11 7 8 6 5 7 9 12 14 16 17 19 21 23 25 26 27 27 26 28
8 7 7 7 5 6 4 3 6 9 9 10 10 8 4 3 9 13 16 19 18 17 18 19 22 23 24 25 25 26 26 26
18 14 11 19 22 20 17 15 14 12 10 7 6 4 3 8 12 15 16 18 16 16 19 20 22 23 23 24 25 26 24 23
13 20 21 20 20 19 17 15 12 10 7 3 1 2 5 10 10 12 14 14 16 18 19 19 19 21 23 24 24 23 21 16
19 19 18 17 16 14 13 11 8 5 3 3 5 6 6 7 9 12 15 17 17 17 16 18 19 20 20 21 21 21 19 16
18 17 14 14 13 13 12 10 8 6 4 4 5 5 5 8 12 15 16 16 14 15 17 18 18 20 21 21 20 18 17 15
19 18 15 13 13 12 9 8 5 3 3 5 6 6 10 14 15 15 16 15 17 19 20 19 20 20 20 20 20 19 18 16
17 15 13 12 10 10 9 6 5 4 4 5 6 10 12 14 17 16 16 19 19 21 21 22 21 20 21 22 22 20 16 16
14 13 14 12 11 10 7 6 4 3 4 7 10 10 13 15 16 16 18 21 21 21 22 23 22 21 23 24 23 18 17 17
14 13 13 13 11 9 7 3 3 5 8 10 8 12 15 18 20 20 21 22 23 23 23 23 23 22 22 23 22 17 18 16
11 12 13 12 9 7 3 3 5 8 10 10 12 17 20 20 21 22 22 23 22 22 22 24 24 24 23 24 19 16 14 16
14 14 12 9 6 3 2 6 7 11 9 12 15 16 20 23 21 19 21 25 24 24 23 23 25 24 22 25 15 11 13 16
14 11 8 5 3 2 4 9 7 8 10 14 19 23 22 19 17 21 24 28 26 24 23 24 24 24 24 26 11 10 13 16
11 7 5 4 3 2 7 5 7 12 16 20 20 17 15 16 21 25 27 26 25 24 22 22 23 23 26 9 8 15 15 19
8 7 6 4 2 3 3 7 12 16 18 18 16 14 18 20 23 26 26 24 25 25 22 19 17 12 8 10 14 13 18 24
9 9 6 4 4 3 7 11 15 18 17 16 16 19 21 23 25 26 24 24 23 16 16 14 9 9 10 10 12 17 24 27
11 7 5 5 3 6 11 15 17 17 17 18 19 20 22 23 23 24 23 21 19 18 14 11 12 11 9 13 18 22 23 23
11 9 8 5 5 9 13 16 18 18 19 20 22 22 22 22 21 24 23 22 20 20 14 11 11 10 13 17 22 21 21 23
Wind_Direction
237 248 256 252 243 236 235 231 212 193 187 278 256 282 189 50 38 8 342 327 320 315 310 306 305 308 311 312 311 312 312 310
241 261 258 252 230 233 242 238 293 273 273 158 135 154 114 81 39 10 351 339 327 322 322 320 318 316 316 317 318 319 321 323
123 113 89 81 110 133 165 107 133 122 132 125 141 145 116 4 344 344 339 337 332 328 320 315 314 314 316 319 323 326 326 326
122 116 108 109 105 103 104 105 107 114 126 141 143 150 341 341 333 327 324 319 316 314 314 315 318 321 324 326 328 328 326 323
132 124 118 113 109 110 115 117 120 128 135 146 211 288 293 314 309 306 314 308 313 313 315 318 323 325 327 328 328 325 321 316
141 133 134 137 135 133 130 130 142 148 171 223 266 285 291 306 308 317 316 313 313 314 321 326 325 324 325 326 327 328 328 324
153 154 155 157 163 166 163 166 172 197 218 259 289 308 326 335 325 321 316 313 314 320 326 326 327 328 326 322 319 319 319 319
174 180 180 179 185 193 187 192 205 239 288 308 320 323 330 326 328 326 322 313 316 323 325 323 321 314 310 312 311 308 307 303
192 197 196 197 212 200 204 216 242 270 292 305 316 325 324 325 330 328 325 330 321 319 318 309 300 302 312 312 304 304 300 300
199 208 211 214 213 205 216 229 239 282 309 328 330 331 328 325 326 324 321 321 317 309 307 304 301 306 315 313 299 295 294 298
209 216 207 203 196 194 189 195 278 299 307 308 308 314 317 319 317 315 303 300 302 302 306 303 299 294 307 309 292 288 292 293
184 174 170 169 169 172 190 254 298 312 323 312 307 312 318 318 313 310 307 311 312 306 305 300 296 292 297 296 275 285 285 297
159 156 159 165 175 202 291 326 322 318 314 314 316 319 316 315 317 314 316 317 316 311 302 292 291 287 295 288 272 270 291 298
161 168 174 175 184 231 323 323 308 323 327 321 315 315 319 319 314 316 320 321 319 310 304 298 293 297 303 290 268 277 294 288
175 179 188 193 217 296 313 308 327 324 317 316 318 321 315 314 318 321 325 326 321 313 304 303 304 300 295 263 272 293 289 297
182 190 187 192 250 278 293 318 318 318 320 322 324 314 315 319 319 325 328 325 321 314 312 309 308 317 301 292 293 294 300 307
190 186 195 222 212 258 306 315 319 321 323 322 318 318 319 319 319 325 328 324 320 314 308 312 327 313 304 299 303 304 310 310
193 201 220 199 235 300 310 316 320 321 318 319 317 313 312 315 317 322 324 322 324 313 320 305 305 298 298 307 310 311 311 314
203 208 198 216 276 301 313 318 319 319 321 322 320 314 309 310 311 318 319 317 309 308 299 299 296 293 304 309 312 313 316 319